Other Surface Observations
Issued by NWS Tucson, AZ

Home | Current Version | Previous Version | Text Only | Print | Product List | Glossary On
Versions: 1 2 3 4 5 6 7 8 9 10 11 12 13 14 15 16 17 18 19 20 21 22 23 24 25 26 27 28 29 30 31 32 33 34 35 36 37 38 39 40 41 42 43 44 45 46 47 48 49 50
000
SXUS55 KTWC 191715
OSOTWC

WEATHER ROUNDUP FOR SOUTHEAST ARIZONA
NATIONAL WEATHER SERVICE TUCSON AZ
1015 AM MST SAT APR 19 2014

AZZ504>506-514-191815-
LOCATION       SKY/WX    TMP DP  RH WIND       PRES   REMARKS
TUCSON         CLOUDY    70  42  36 NW15      30.04R
DAVIS-MONTHAN  CLOUDY    71  43  36 NW14G20   30.03R
CHILDRENS PARK N/A       67 N/A N/A NW5               PIMA CO DEQ
ALVERNON/22ND  N/A       69 N/A N/A NW6               PIMA CO DEQ
CHERRY/GLENN   N/A      N/A N/A N/A N/A               PIMA CO DEQ
TANGERINE      N/A       67 N/A N/A NW2               PIMA CO DEQ
CONTL RANCH    N/A       70  45  41 W5                PIMA CO DEQ
GRANT/1ST      N/A       69  45  42 NW7               PIMA CO DEQ
CRAYCROFT/22ND N/A       68  44  41 NW12              PIMA CO DEQ
GOLFLINKS/KOLB N/A      N/A N/A N/A N/A               PIMA CO DEQ
AJO/12TH       N/A       70  42  36 W8                PIMA CO DEQ
SAGUARO EAST   N/A       70  46  42 W11               PIMA CO DEQ
FAIRGROUNDS    N/A       69 N/A N/A NW12              PIMA CO DEQ
SAGUARO        N/A       71  46  41 W7G12             *SABINO CYN
SAN CARLOS     N/A       63  47  56 CALM              *SAN CARLOS
GREEN VALLEY   N/A       70  42  37 NW10              PIMA CO DEQ
HORSE CAMP CYN N/A       61  43  51 E8G15             *ARAVAIPA CYN
RINCON MTNS    N/A       52  39  62 SW3               *NR MANNING CAMP
$$

AZZ509>511-191815-
LOCATION       SKY/WX    TMP DP  RH WIND       PRES   REMARKS
SAFFORD        MOSUNNY   67  46  47 S10       30.04R
STRAY HORSE    N/A       51  40  65 SE3               *
TRAIL CABIN    N/A       55  42  61 E6G12             *N OF GRANVILLE
BLACK HILLS    N/A       70  46  42 S4G11             *N OF FT THOMAS
DRY LAKE       N/A       51  41  68 SE5G11            *NATANES MTNS
NOON CREEK     N/A       62  40  45 S3G12             *PINALENO MTNS
COLUMBINE      N/A       46  35  65 S4                *PINALENO MTNS
GUTHRIE        N/A       53  41  63 E9G15             *SW OF GUTHRIE
$$

AZZ502-503-513-191815-
LOCATION       SKY/WX    TMP DP  RH WIND       PRES   REMARKS
NOGALES        PTSUNNY   69  42  37 W9        30.03S
SELLS          N/A       59  48  66 E18G26            *
SASABE         N/A       64  47  53 N6G10             *ALTAR VLY
HOPKINS        N/A       57  38  48 S3G11             *SANTA RITA MTNS
CARR CYN       N/A       64  39  39 E6G14             *W OF HEREFORD
$$

AZZ507-508-512-191815-
LOCATION       SKY/WX    TMP DP  RH WIND       PRES   REMARKS
SIERRA VISTA   PTSUNNY   66  39  37 W5        30.06S
DOUGLAS        MOSUNNY   64  49  57 S3        30.06S
EMPIRE MTNS    N/A       64  41  43 NW8G15            *LAS CIENEGAS NCA
MULESHOE RANCH N/A       68  41  38 E5G14             *PRESERVE
HEADQUARTERS   N/A       56  44  65 NE5G14            *CHIRICAHUA MTNS
$$

.............................NOTES.............................
THIS IS AN AUTOMATED COLLECTIVE WITH MINIMAL QUALITY CONTROL.
PIMA CO DEQ SITES HAVE NONSTANDARD WIND SENSOR HEIGHTS.
PIMA CO DEQ SITES DO NOT REPORT WIND GUSTS.
* INDICATES WIND SENSORS LOCATED AT 20 FEET INSTEAD OF 33 FEET.
..............................KEY..............................
SKY/WX - SKY CONDITION/WEATHER
TMP    - TEMPERATURE IN FAHRENHEIT
DP     - DEWPOINT IN FAHRENHEIT
RH     - RELATIVE HUMIDITY IN PERCENT
WIND   - DIRECTION AND SPEED IN MILES PER HOUR (MPH)
VRB    - VARIABLE WIND DIRECTION
PRES   - MEAN SEA LEVEL PRESSURE IN INCHES OF MERCURY
         F - FALLING PRESSURE   R - RISING PRESSURE
         S - STEADY PRESSURE
VSB    - VISIBILITY IN MILES
HX     - HEAT INDEX IN FAHRENHEIT
WCI    - WIND CHILL INDEX IN FAHRENHEIT
N/A    - NOT AVAILABLE
AFB    - AIR FORCE BASE
         DAVIS-MONTHAN IS DAVIS-MONTHAN AIR FORCE BASE
CYN    - CANYON
MTNS   - MOUNTAINS
NCA    - NATIONAL CONSERVATION AREA
NR     - NEAR
VLY    - VALLEY
CONTL  - CONTINENTAL
PIMA CO DEQ - PIMA COUNTY DEPT OF ENVIRONMENTAL QUALITY



USA.gov is the U.S. government's official web portal to all federal, state and local government web resources and services.